Regional Weather Roundup
Issued by NWS

Home | Current Version | Previous Version | Text Only | Print | Product List | Glossary On
Versions: 1 2 3 4 5 6 7 8 9 10 11 12 13 14 15 16 17 18 19 20 21 22 23 24 25 26 27 28 29 30 31 32 33 34 35 36 37 38 39 40 41 42 43 44 45 46 47 48 49 50
000
ASUS45 KBOU 011910
RWRCO

WEATHER ROUNDUP FOR COLORADO
NATIONAL WEATHER SERVICE DENVER/BOULDER CO
100 PM MDT WED JUL 01 2015

NOTE: "FAIR" INDICATES FEW OR NO CLOUDS BELOW 12000 FEET WITH NO
SIGNIFICANT WEATHER AND/OR OBSTRUCTIONS TO VISIBILITY.

COZ001>005-013-030-031-012000-
...NORTHWEST COLORADO...

CITY           SKY/WX    TMP DP  RH WIND       PRES   REMARKS
CRAIG          CLOUDY    78  50  37 W9        30.26R
HAYDEN         CLOUDY    73  50  43 W9        30.27F
MEEKER         PTSUNNY   81  51  35 S7        30.26S
MOUNT WERNER   NOT AVBL
STEAMBOAT SPGS CLOUDY    74  51  45 S5        30.29S
WALDEN         MOSUNNY   73  45  35 SW5       30.36S
$$

COZ006>008-011-012000-
...WEST CENTRAL VALLEYS...

CITY           SKY/WX    TMP DP  RH WIND       PRES   REMARKS
GRAND JUNCTION PTSUNNY   88  47  24 S10       30.08F
MONTROSE       PTSUNNY   89  49  25 W6        30.16F
EAGLE          PTSUNNY   84  45  24 CALM      30.24F
RIFLE          CLOUDY    87  49  26 NW18G26   30.15S
DELTA          PTSUNNY   92  45  19 S8        30.11F
NUCLA          PTSUNNY   88  43  20 N8        30.21F
$$

COZ017>023-064>068-012000-
...SOUTHWEST COLORADO...

CITY           SKY/WX    TMP DP  RH WIND       PRES   REMARKS
DURANGO        MOSUNNY   85  46  25 N5        30.22F
CORTEZ         SUNNY     90  45  21 W5        30.16F
PAGOSA SPRINGS MOSUNNY   81  42  25 W6        30.31F
TELLURIDE      PTSUNNY   76  40  27 W13G22    30.45S
WOLF CREEK PAS NOT AVBL
$$

COZ009-010-012-014-032>034-037-058>063-012000-
...CENTRAL COLORADO...

CITY           SKY/WX    TMP DP  RH WIND       PRES   REMARKS
ASPEN          MOSUNNY   85  42  22 NW8       30.30F
BUENA VISTA    PTSUNNY   80  38  22 W6        30.31F
COPPER MTN     CLOUDY    66  32  28 W17G23    30.68F
BERTHOUD PASS  CLOUDY    50  39  66 E7        30.74S
COTTONWOOD PAS NOT AVBL
GUNNISON       PTSUNNY   79  46  31 SW5       30.33F
KREMMLING      PTSUNNY   81  39  22 N7        30.31F
LEADVILLE      PTSUNNY   73  37  27 N14       30.47F
SALIDA         PTSUNNY   84  43  23 CALM      30.34F
SUNLIGHT       PTSUNNY   68  43  40 NW6       30.62S
WILKERSON PASS PTSUNNY   64  39  39 SE3       30.64F
$$

COZ069>075-012000-
...SAN LUIS VALLEY/SANGRE DE CRISTO MOUNTAINS...

CITY           SKY/WX    TMP DP  RH WIND       PRES   REMARKS
ALAMOSA        MOSUNNY   81  46  29 MISG      30.29F
LA VETA PASS   PTSUNNY   70  46  43 MISG      30.54S
SAGUACHE       MOSUNNY   81  45  28 SW3       30.33F
$$

COZ035-036-038>040-012000-
...NORTHERN COLORADO FRONT RANGE...

CITY           SKY/WX    TMP DP  RH WIND       PRES   REMARKS
DENVER INTL AP MOSUNNY   88  50  27 VRB6      30.15F
DMNS CITY PARK   N/A     87  52  30 E8G14     30.14F
AURORA         MOSUNNY   86  52  31 E7        30.18S
FRONT RANGE AP MOSUNNY   86  52  30 CALM      30.17F
ERIE MUNI ARPT MOSUNNY   85  49  28 SE5       30.13F
BOULDER MUN AP MOSUNNY   84  50  30 SE5       30.14F
CENTENNIAL     MOSUNNY   84  51  31 E5        30.19F
BROOMFIELD     PTSUNNY   84  48  28 NE6       30.19
FORT COLLINS   MOSUNNY   90  55  31 E6        30.11F
LONGMONT       MOSUNNY   93  52  24 CALM      30.14F
$$

COZ041-046-047-076>085-087-088-012000-
...PIKES PEAK/PALMER DIVIDE AND SOUTHERN FOOTHILLS...

CITY           SKY/WX    TMP DP  RH WIND       PRES   REMARKS
COLO. SPRINGS  MOSUNNY   85  52  32 E12       30.22F
A. F. ACADEMY  MOSUNNY   83  49  30 VRB6      30.24S
ELLICOTT       SUNNY    N/A N/A N/A E10       30.22S
FALCON         SUNNY     82  49  31 E12G17    30.30S
FORT CARSON    MOSUNNY   82  55  39 SE8       30.19F
LIMON          SUNNY     86  53  32 NE7       30.16S
MONUMENT HILL  SUNNY     77  50  38 NE12      30.29F
TRINIDAD       PTSUNNY   86  49  27 NE12      30.17S
$$

COZ042>045-048>051-090-091-012000-
...NORTHEAST COLORADO...

CITY           SKY/WX    TMP DP  RH WIND       PRES   REMARKS
GREELEY ARPT   SUNNY     91  55  29 S7        30.11S
AKRON          SUNNY     89  52  28 NE12G17   30.10S
BURLINGTON     SUNNY     93  50  23 N15       30.05S
WRAY           SUNNY     98  47  17 NE13G18   30.00S
STERLING       MOSUNNY   93  52  24 E7          N/A
HOLYOKE        SUNNY     97  50  20 N13G21    30.01S
FORT MORGAN    SUNNY     91  49  24 N3        30.10S
$$

COZ086-089-092>099-012000-
...SOUTHEAST COLORADO...

CITY           SKY/WX    TMP DP  RH WIND       PRES   REMARKS
PUEBLO         MOSUNNY   95  50  21 VRB7      30.09F
LA JUNTA       MOSUNNY   93  54  26 N8        30.05F
LAMAR          MOSUNNY   95  56  26 NE14      29.99F
SPRINGFIELD      N/A     92  49  22 NE17      30.03F
$$



USA.gov is the U.S. government's official web portal to all federal, state and local government web resources and services.